Location: Sternwarte ZA, Rosenfeld-Brittheim
(48.2889°N, 8.6789°E)
Time: 21:37:19
(UTC+02:00)

ISS - Pass Details

Date: 12 September 2019
Orbit: 411 x 421 km, 51.6° (Epoch: 19 September)

Event Time Altitude Azimuth Distance (km) Brightness Sun altitude
Exits shadow 04:43:37 64° 34° (NE) 465 -3.4 -21.5°
Drops below altitude 10° 04:46:48 10° 100° (E) 1,491 -0.3 -21.0°
Sets 04:48:55 0° 103° (ESE) 2,354 0.7 -20.7°
